Wind_Speed
5 4 4 3 2 1 2 1 1 2 4 5 6 5 4 4 5 4 3 2 1 1 2 2 0 1 1 1 3 5 5 10 16 21 18 14 19 16 13 13 12 12 12 9 8 9 7 6 7 9 10 4 2 3 3 3 3 5 4 5 3 2 1 4 4 3 3 0 3 5 3 7 6 3 5 6 12 9 8 8 7 10 9 11 20 28 28 27
4 4 3 2 1 1 1 0 1 2 4 4 5 7 6 5 3 3 3 2 2 3 3 1 1 2 2 1 1 4 3 5 12 17 16 18 20 15 12 12 11 10 11 11 10 9 4 4 7 8 6 2 3 3 3 4 4 4 4 4 2 5 2 3 5 3 2 1 2 4 4 5 2 2 3 5 3 5 10 6 5 9 8 11 17 20 22 22
5 4 3 2 0 1 1 1 0 2 3 3 4 6 7 6 4 3 3 3 5 6 8 5 2 2 3 3 2 3 2 2 7 10 15 19 16 12 11 9 9 11 12 12 12 10 5 6 7 6 3 3 3 3 4 4 3 2 4 5 2 6 2 1 3 4 3 1 1 3 4 6 5 1 4 6 5 4 8 5 2 6 7 7 10 15 18 18
5 4 2 1 0 1 1 1 1 2 2 2 3 5 6 5 4 3 4 5 5 5 7 8 5 1 2 4 3 3 1 4 4 9 16 17 14 12 10 8 10 12 12 11 11 10 8 7 4 2 3 3 4 4 4 3 2 2 3 4 5 4 4 1 3 5 4 2 4 3 4 6 4 4 4 7 6 4 3 7 7 10 11 8 9 14 18 19
4 4 3 2 1 1 1 1 1 2 2 2 3 5 5 4 2 1 4 5 2 2 4 6 5 3 1 2 4 4 2 5 4 11 17 15 14 13 9 8 10 11 11 10 8 6 4 2 2 4 4 2 4 5 2 3 3 4 2 3 6 5 4 2 3 3 3 3 5 5 5 4 0 5 3 5 6 2 4 5 9 10 11 12 12 15 17 19
4 4 3 2 2 1 1 1 1 3 3 3 3 4 4 4 3 1 4 6 4 1 3 4 4 5 5 5 4 2 5 2 7 13 16 15 14 13 10 8 9 9 8 6 6 7 6 4 5 4 4 3 3 4 1 5 4 5 2 1 4 5 5 2 2 3 3 5 6 3 4 4 6 6 4 4 5 2 1 5 9 11 13 17 17 16 16 15
4 4 3 2 1 0 0 0 1 4 4 3 4 4 5 5 5 3 2 5 5 2 3 3 2 4 6 6 8 8 6 1 10 14 16 15 12 12 9 7 9 7 5 7 7 5 6 8 6 3 5 3 1 3 2 5 7 6 2 0 3 4 6 4 5 5 7 7 4 4 7 5 7 6 2 5 5 3 7 12 16 16 17 19 16 15 15 15
4 3 2 1 2 2 1 1 1 3 4 3 4 4 6 9 10 9 7 5 4 1 4 3 1 4 4 1 4 7 4 4 12 14 15 13 10 11 8 5 9 9 11 15 10 3 4 7 3 2 4 2 3 3 2 5 7 5 3 1 2 1 3 5 6 7 8 7 7 10 9 4 6 7 4 4 5 5 9 14 16 16 15 14 13 13 15 15
3 2 2 3 3 2 2 2 3 3 3 3 4 4 7 10 11 10 9 7 5 5 6 6 1 4 5 2 5 4 3 7 11 13 15 12 9 10 7 7 11 10 13 17 16 10 5 3 1 2 4 2 4 3 2 4 2 1 3 2 3 1 2 5 5 7 6 4 9 13 9 5 6 7 5 3 5 6 9 11 10 12 11 9 9 11 14 14
2 3 3 3 2 1 2 3 3 3 2 3 4 5 6 6 6 8 7 7 6 6 7 10 7 2 6 4 7 4 4 8 11 12 13 11 8 8 8 11 12 11 12 14 19 14 5 1 3 2 5 2 4 2 3 4 2 2 4 4 5 3 1 4 4 6 6 2 6 11 8 5 3 3 3 4 5 6 9 8 6 9 8 6 7 9 12 13
2 3 3 3 2 1 2 3 4 4 3 3 4 4 3 1 3 5 5 6 6 5 6 8 8 9 12 10 7 4 4 8 11 12 12 9 7 9 11 12 12 12 11 12 15 12 7 3 2 2 3 2 3 3 2 2 3 3 5 5 6 5 3 4 4 5 4 1 3 10 7 0 4 2 6 7 6 6 9 8 5 7 6 6 6 7 10 12
2 4 5 3 2 1 1 4 5 5 4 4 4 4 2 1 1 2 4 5 5 5 5 5 4 5 14 14 5 2 5 9 13 13 10 8 6 9 11 10 11 11 11 12 13 14 13 8 5 5 1 2 3 2 1 1 4 3 5 5 5 7 4 3 1 1 3 2 5 7 4 3 4 1 7 8 7 6 9 8 5 6 6 5 5 5 8 11
4 6 6 4 1 2 4 6 7 6 4 5 4 3 2 1 1 2 3 4 4 3 3 5 6 0 5 7 2 4 7 10 14 11 8 7 4 7 9 7 8 9 10 11 11 16 15 9 11 8 1 5 2 0 3 3 4 2 4 5 2 7 3 3 1 3 2 4 5 3 1 4 2 2 6 7 8 8 8 6 5 5 5 5 5 5 6 10
5 6 5 2 2 5 7 7 7 6 5 6 5 4 3 3 3 1 1 2 2 0 1 3 5 4 5 2 2 5 7 9 13 14 11 8 4 5 7 6 6 7 8 10 10 13 14 10 13 8 3 5 1 0 4 6 5 2 2 3 2 2 3 5 3 2 1 2 4 4 3 5 5 4 7 7 8 10 8 6 6 5 5 5 5 5 5 9
6 6 4 4 6 7 7 6 5 5 5 6 5 3 2 2 2 1 0 2 1 0 3 2 2 5 6 2 1 3 8 9 15 17 13 8 7 6 6 7 7 8 9 10 9 9 12 13 11 5 2 3 3 3 4 4 4 4 1 2 3 1 4 8 4 2 1 2 4 5 4 4 5 6 6 7 7 8 8 7 6 6 6 5 5 6 5 8
6 5 5 8 9 9 8 6 4 3 3 4 5 4 3 3 3 1 2 3 3 2 3 1 2 5 5 1 1 3 6 9 14 16 9 6 8 7 7 6 6 8 7 10 11 7 11 13 7 3 2 5 5 5 4 4 4 3 2 2 3 1 3 5 2 1 1 3 3 3 2 3 4 6 5 7 7 7 8 7 7 6 7 6 5 6 5 6
6 6 7 9 9 9 9 9 8 7 7 8 8 7 8 7 4 1 4 4 4 4 5 4 3 4 4 2 2 3 6 8 12 16 9 3 6 7 6 5 5 9 6 8 13 9 8 8 3 2 4 4 3 4 3 3 3 4 3 1 3 2 2 4 3 3 4 2 3 4 2 4 5 4 4 7 8 7 8 8 8 7 6 6 6 5 5 6
5 5 5 6 6 7 8 10 10 10 9 6 5 6 6 9 9 3 4 3 2 3 5 6 6 4 2 3 1 5 10 8 10 15 9 3 5 6 6 5 4 9 7 6 10 8 6 5 3 3 4 5 5 6 2 3 2 3 2 1 2 3 2 4 4 3 5 5 4 2 0 5 6 4 3 6 8 8 8 8 8 7 7 7 6 6 6 6
4 3 2 2 3 4 4 5 5 3 1 4 6 7 5 3 8 9 8 6 1 1 1 3 4 3 1 2 3 8 9 5 7 15 13 7 5 5 7 7 4 6 5 3 6 5 3 4 5 4 3 4 2 4 4 4 4 5 4 3 3 4 4 5 6 4 3 5 5 3 3 5 6 6 5 6 7 7 7 7 6 7 7 7 6 6 7 6
4 3 1 1 2 2 1 1 3 5 7 8 7 6 3 1 3 6 10 10 3 2 1 2 0 2 1 2 6 9 4 1 5 14 18 11 4 4 6 7 6 7 5 1 3 3 3 5 4 1 3 4 4 5 3 1 4 5 3 2 4 4 5 6 6 6 3 3 5 4 4 5 7 8 7 5 6 6 7 7 7 7 7 7 7 7 8 7
5 4 2 1 1 2 3 4 5 6 5 5 4 1 1 2 2 0 2 5 1 1 2 2 2 1 1 2 7 8 2 1 4 15 22 11 3 3 4 5 6 4 4 1 1 3 5 6 1 5 7 4 2 3 3 3 3 4 3 2 3 3 6 7 4 5 4 4 5 4 2 7 7 8 7 5 7 8 9 9 9 9 8 7 8 9 9 7
5 5 4 2 1 1 2 3 4 3 2 2 1 4 4 4 5 5 3 2 2 3 3 3 2 2 2 1 6 6 3 4 6 14 21 13 6 3 1 5 6 2 4 3 2 5 6 3 5 7 4 2 4 5 5 3 4 4 2 1 3 3 4 7 3 3 4 3 5 6 4 8 7 7 7 5 7 7 7 9 9 10 10 8 8 9 8 7
5 5 5 4 3 3 3 3 3 3 2 2 6 9 7 8 7 4 3 4 1 2 3 3 3 3 4 3 7 7 6 5 3 9 18 13 5 3 3 5 5 2 5 4 2 2 3 2 6 4 2 5 4 6 7 5 3 3 3 1 4 3 1 4 4 5 4 2 4 5 6 6 3 3 6 6 6 4 4 8 7 8 10 9 10 9 8 9
5 5 5 4 3 2 3 4 3 4 5 7 11 11 9 7 5 2 2 3 0 2 1 0 1 1 1 3 7 6 4 2 1 6 14 9 2 2 4 4 5 4 4 3 6 6 1 3 2 5 5 6 3 5 6 4 4 1 3 3 4 4 3 6 5 7 6 2 2 3 6 6 1 2 7 5 4 5 4 6 7 8 8 8 9 9 9 10
5 5 5 4 3 2 2 2 3 6 8 9 11 9 7 4 1 1 3 3 2 3 2 1 0 1 1 2 5 1 2 2 1 4 8 7 2 2 3 2 4 2 3 2 7 5 0 2 1 4 6 6 4 1 1 3 2 4 3 5 6 6 6 6 4 5 5 3 2 3 4 5 3 3 8 4 4 6 4 5 9 8 8 8 8 8 9 9
5 5 5 4 3 2 1 1 2 5 5 5 7 6 5 4 2 3 3 4 2 4 3 1 1 3 3 5 5 1 4 2 3 2 5 6 3 3 3 2 3 3 6 1 4 2 1 3 3 3 4 7 4 0 2 4 4 2 3 5 5 4 5 6 2 1 1 2 3 3 3 5 5 4 7 3 5 8 6 8 10 8 8 9 9 8 9 9
5 4 5 5 3 3 2 1 3 4 2 3 6 5 4 3 2 2 3 4 3 2 1 1 1 3 3 4 4 3 2 3 2 3 5 5 3 3 4 1 1 1 2 2 1 1 1 3 6 5 5 5 3 2 2 5 4 3 2 3 2 5 6 5 3 3 2 2 4 2 4 3 5 4 4 2 4 8 9 12 12 10 11 11 10 10 10 10
5 5 5 5 4 4 2 2 5 4 1 3 6 3 2 1 1 1 4 3 2 0 2 1 1 2 3 4 6 4 1 2 2 2 5 9 5 3 5 2 4 1 1 4 2 3 1 1 1 4 5 4 0 2 4 5 2 6 5 2 4 5 4 3 5 4 1 2 4 4 2 1 6 5 3 3 2 8 11 14 14 12 13 12 12 13 12 10
7 6 5 5 4 3 0 2 3 2 1 3 6 2 0 0 1 4 5 1 1 1 1 1 1 2 4 5 6 4 2 2 2 3 5 9 7 5 4 2 6 4 2 5 4 3 1 1 3 5 4 0 4 5 5 5 3 6 5 4 3 2 1 2 4 3 2 3 3 5 2 1 5 5 2 2 2 7 10 11 11 11 12 12 13 13 11 8
8 7 7 5 3 1 1 1 1 1 2 4 4 2 0 1 4 6 2 2 0 1 1 1 1 2 5 4 4 5 4 2 2 4 4 4 7 7 3 1 5 5 2 4 2 2 2 2 2 3 2 3 3 4 4 6 5 5 6 5 4 4 3 2 2 3 4 3 5 5 2 3 3 6 3 3 5 7 7 7 7 7 9 11 11 11 10 8
10 9 9 7 3 1 1 0 1 3 4 4 3 1 2 3 5 5 2 3 0 2 1 2 2 4 7 3 2 4 4 4 5 4 5 4 6 7 4 2 3 3 3 4 3 3 5 3 1 2 2 1 2 2 1 0 2 4 4 3 3 3 3 4 4 4 3 4 5 4 2 3 2 6 5 6 7 7 6 7 7 7 9 10 9 9 9 8
10 10 10 10 6 2 1 2 3 4 4 4 3 3 4 3 2 2 2 3 1 2 0 1 2 3 4 2 2 4 3 3 4 4 3 3 4 4 3 1 1 2 3 2 2 4 4 2 3 3 2 1 2 1 3 4 5 5 3 3 4 3 3 3 3 2 1 5 4 4 2 0 5 8 8 9 10 9 9 9 8 8 9 9 8 8 7 6
9 9 10 10 7 4 3 4 4 4 3 3 2 4 6 4 2 3 2 2 1 2 1 1 2 2 2 2 3 3 2 1 3 4 2 2 4 2 2 1 3 1 2 2 2 4 3 4 4 2 2 1 3 1 1 2 3 4 2 3 3 2 4 3 3 2 3 5 3 3 1 2 5 7 8 10 10 8 9 9 8 8 8 8 7 7 6 6
8 7 8 8 7 4 3 3 3 4 3 3 4 5 5 1 4 3 2 3 1 2 2 2 2 3 2 1 2 2 1 1 2 3 3 3 3 1 2 4 1 3 1 1 1 0 1 4 2 2 1 1 2 3 3 3 1 1 2 4 3 2 1 2 3 2 4 6 4 1 1 3 3 4 7 8 7 5 6 7 6 6 7 5 5 5 5 6
7 6 5 6 7 5 2 2 3 3 2 3 5 5 3 4 4 2 2 4 1 1 1 1 3 4 3 2 2 1 1 1 2 3 3 2 2 2 1 3 2 2 2 0 1 1 0 4 4 1 1 2 1 2 3 4 1 1 2 3 1 2 3 2 3 4 1 4 4 2 3 5 4 7 6 2 5 5 5 6 6 8 8 4 5 6 6 6
6 6 4 5 7 5 2 2 2 2 2 5 6 2 4 4 2 2 3 1 1 2 1 2 3 3 2 3 3 3 1 1 1 2 2 1 2 3 2 2 1 2 3 2 1 0 1 4 3 3 2 2 2 3 1 2 1 0 2 1 2 3 5 3 2 2 3 1 3 2 4 5 3 7 6 5 6 7 5 7 8 9 8 5 6 7 7 7
6 5 3 4 8 5 2 2 2 2 3 6 4 2 4 2 1 3 2 0 1 3 4 0 1 1 2 2 2 3 2 1 1 1 1 1 1 3 2 1 2 2 3 3 1 1 1 4 4 1 1 2 1 2 1 2 2 3 1 3 2 2 4 3 1 4 4 1 4 2 6 6 3 4 6 4 6 9 8 9 9 9 8 7 9 8 8 8
5 4 2 5 8 4 2 3 3 2 4 5 1 3 2 2 1 2 1 1 1 3 4 2 2 1 2 2 2 3 1 1 1 1 1 1 1 3 3 1 2 2 2 2 1 0 2 2 5 1 2 3 2 3 2 4 2 3 2 2 2 1 1 1 0 2 2 3 5 4 6 5 3 4 6 5 7 9 9 8 8 9 9 9 10 9 9 8
4 2 2 6 7 3 2 3 2 3 5 3 2 2 1 1 1 1 2 1 2 3 2 3 1 1 2 3 2 3 1 2 1 1 1 1 1 2 3 2 2 1 1 3 3 1 2 1 4 3 2 3 3 1 2 2 1 2 1 1 2 2 3 1 0 2 1 2 4 4 5 4 6 6 5 8 9 8 9 7 7 10 10 8 8 8 8 7
2 1 1 6 5 2 2 2 2 5 4 2 3 2 0 1 2 2 2 1 1 2 1 3 2 1 3 3 2 2 1 2 3 1 1 1 1 2 2 1 3 2 1 2 2 0 2 2 3 4 3 2 1 3 5 5 3 1 1 1 1 0 1 0 0 3 3 2 2 3 4 7 7 4 7 11 10 8 9 8 8 9 8 8 8 8 7 7
3 2 3 6 3 1 2 4 3 3 3 2 2 1 0 1 1 2 2 1 0 1 1 3 3 3 3 2 2 2 2 1 2 2 2 2 1 1 0 1 3 3 1 2 2 1 1 2 3 3 3 2 4 4 4 6 5 5 3 4 3 2 2 1 3 2 2 3 4 2 4 11 8 3 6 10 8 8 8 8 8 8 8 9 8 8 8 7
4 2 3 6 2 2 3 5 2 2 4 2 1 1 0 1 2 1 2 1 0 0 0 1 2 2 3 2 2 3 2 1 2 2 2 3 3 2 1 2 2 1 2 1 1 2 2 3 1 4 5 4 5 3 1 3 3 4 3 3 3 4 5 4 3 3 1 1 2 3 2 10 7 5 6 7 7 7 7 7 8 7 8 9 8 8 8 7
2 2 2 5 2 0 5 3 3 3 1 1 1 0 0 1 1 0 1 1 1 0 1 0 1 1 1 1 1 3 2 2 3 3 2 3 2 1 1 3 1 1 2 1 1 1 1 2 1 4 5 3 4 4 2 1 2 1 2 2 4 3 4 5 5 3 2 3 2 2 3 10 7 3 5 5 4 6 6 6 7 7 7 8 8 8 7 8
2 3 1 4 4 2 3 1 1 1 2 2 1 1 1 0 2 2 2 2 1 2 1 1 2 1 1 1 2 2 2 1 2 1 1 3 1 1 2 3 1 1 1 2 2 1 1 1 1 2 6 6 5 5 4 3 0 3 3 2 3 4 6 4 2 2 1 5 6 4 5 10 7 1 2 4 5 6 7 7 7 8 8 7 7 7 7 7
1 0 1 4 6 5 2 3 4 4 2 1 1 2 1 0 1 3 3 2 2 3 2 1 1 1 1 2 2 0 1 0 1 1 1 1 2 2 2 2 1 1 1 1 0 0 2 2 2 1 2 4 5 4 3 2 2 2 2 3 4 6 8 4 2 3 3 5 6 6 7 11 10 4 3 6 6 8 10 8 7 8 8 8 7 7 7 7
2 1 2 5 6 6 2 1 5 5 4 3 1 2 2 1 2 1 2 2 1 2 1 1 0 2 2 1 1 1 2 1 1 1 1 2 2 1 1 1 1 1 2 1 2 2 2 1 3 5 6 7 7 6 2 1 1 5 5 5 6 6 7 5 4 3 5 3 3 9 12 14 19 16 11 11 9 10 12 10 8 8 8 8 7 7 7 7
1 1 1 1 3 3 3 3 4 4 3 4 2 1 3 2 2 1 1 1 0 1 1 0 1 2 2 2 2 2 2 1 1 1 2 3 2 2 1 1 0 1 1 1 1 3 3 3 5 7 10 11 9 8 5 2 5 10 9 6 8 8 7 7 7 7 5 4 6 12 10 10 19 18 15 15 14 13 13 12 11 10 9 8 6 7 8 8
1 1 2 1 1 1 1 1 2 4 1 1 1 1 3 2 1 2 2 1 1 0 1 0 2 5 6 5 3 1 1 1 1 2 2 1 1 2 2 1 1 1 1 1 2 3 4 4 5 5 8 12 8 9 10 7 7 10 10 9 9 9 11 14 16 11 8 6 13 12 6 9 16 18 18 18 17 15 16 14 11 10 8 7 6 7 9 9
1 1 1 2 0 3 1 1 3 5 3 1 1 1 4 4 5 4 2 2 2 2 2 2 6 6 6 5 3 3 3 2 2 4 2 2 2 1 0 2 1 1 1 1 1 2 4 4 4 3 5 12 10 8 9 7 6 9 11 11 11 11 14 16 16 12 9 13 19 18 17 17 18 19 20 19 17 15 14 12 10 11 10 8 8 9 10 10
1 2 1 3 3 1 1 2 3 4 1 1 0 2 3 5 6 4 2 4 2 2 2 4 7 5 5 5 5 4 7 6 3 4 4 3 2 3 3 3 2 2 1 1 1 1 2 3 1 3 3 9 7 4 3 5 6 10 15 13 11 10 11 12 12 8 7 13 18 17 17 17 17 17 16 16 15 12 12 12 11 12 11 9 9 10 11 11
1 2 3 4 2 1 1 2 3 3 0 1 2 3 2 5 7 4 2 2 4 4 6 7 5 2 3 4 6 7 8 8 6 6 7 6 3 4 3 2 5 5 2 2 1 1 2 2 2 5 3 7 4 5 7 7 7 11 17 15 9 8 7 8 7 6 8 10 11 9 8 11 14 11 8 11 12 11 14 15 12 11 10 8 10 12 12 11
2 2 2 4 1 1 1 1 2 2 2 3 3 3 2 4 5 4 2 1 1 3 5 7 5 3 3 3 7 8 6 6 6 5 5 4 1 2 1 2 6 6 5 4 1 1 3 1 1 2 2 6 4 5 7 9 8 8 10 7 6 6 6 5 5 8 10 7 4 5 7 11 11 10 11 13 13 13 15 13 10 11 11 9 10 12 12 12
Wind_Direction
16 17 22 42 74 124 132 121 45 46 69 73 74 95 131 157 170 186 186 143 100 33 358 329 347 138 82 31 32 42 24 42 48 45 45 13 357 360 358 354 352 353 351 346 335 341 345 320 304 320 327 321 33 2 346 9 34 58 77 80 107 149 133 168 179 190 148 171 283 326 14 115 121 130 143 61 48 71 61 47 56 53 65 109 134 143 142 138
14 14 18 42 74 140 131 123 10 50 76 78 74 86 96 112 134 173 189 125 88 50 40 354 213 209 232 280 330 21 11 30 39 37 24 3 359 357 356 355 345 345 347 342 334 341 354 319 325 345 358 30 5 353 11 4 39 78 105 87 151 189 171 174 170 176 123 164 262 350 42 78 72 174 108 70 65 95 85 53 54 77 85 109 125 135 139 139
10 10 16 47 89 159 149 210 342 62 78 84 76 81 87 93 104 126 148 122 111 84 67 73 105 202 228 242 273 343 330 25 30 14 0 360 0 358 2 353 337 340 342 342 333 324 291 281 316 334 28 52 356 12 35 18 43 90 106 82 224 195 151 228 175 152 139 165 69 29 51 49 5 15 95 113 119 90 112 131 112 122 138 119 110 119 128 130
10 13 9 20 298 215 177 212 76 80 86 98 83 81 84 83 95 120 144 137 119 91 60 59 77 104 236 244 269 278 326 46 14 338 351 358 360 2 3 346 339 340 341 346 336 322 298 284 319 357 75 42 331 24 39 358 57 86 98 136 200 171 106 190 188 138 115 82 89 96 75 65 20 42 105 136 97 33 180 179 170 160 156 133 114 113 114 113
12 16 356 342 308 286 206 211 107 112 123 114 85 79 75 52 54 151 169 166 156 101 46 50 71 68 119 263 271 243 71 50 328 337 352 357 359 0 360 347 344 341 341 348 344 355 341 279 63 46 67 46 343 30 22 313 72 71 23 151 176 151 112 201 198 111 102 63 68 97 94 108 67 30 53 124 116 211 236 189 167 152 143 133 127 118 111 110
16 9 345 322 304 279 229 202 136 125 129 116 91 73 50 16 7 258 197 198 212 217 25 42 71 83 96 68 51 115 107 95 319 346 354 357 360 357 2 351 350 347 335 349 16 42 36 47 69 47 54 50 18 59 315 318 61 94 12 85 178 158 131 177 160 82 78 67 48 80 109 116 95 57 2 73 108 190 68 116 126 119 127 127 123 119 115 115
11 355 336 320 340 89 351 274 133 128 132 121 97 65 34 38 58 74 151 190 207 224 14 35 66 107 116 75 54 61 93 77 333 350 354 359 359 359 10 355 2 8 6 32 40 61 50 41 56 90 78 62 90 87 0 354 50 95 100 63 193 153 124 141 133 88 70 81 75 85 95 103 109 103 27 57 86 71 81 100 106 111 122 120 117 118 120 122
2 354 358 47 74 86 75 125 147 137 137 115 93 63 59 80 81 77 92 125 154 109 32 27 194 170 169 167 58 50 57 328 339 352 354 358 7 9 10 0 17 38 50 45 43 83 75 45 43 129 83 77 123 82 19 32 38 75 116 164 178 146 107 109 112 102 85 94 101 82 78 96 118 109 87 87 107 102 101 103 107 114 114 114 117 121 123 125
15 54 69 63 67 84 119 139 143 141 130 105 97 80 91 95 77 66 80 96 102 86 53 36 356 206 200 162 93 61 344 333 344 352 355 357 16 20 20 27 29 46 57 48 46 60 77 58 293 145 128 156 99 73 20 65 32 148 132 148 137 116 90 97 108 115 106 119 109 92 88 115 118 95 77 108 130 124 112 105 112 115 110 114 117 125 130 128
48 68 53 33 24 50 151 138 128 122 96 107 121 102 110 108 57 46 67 86 98 95 60 42 39 145 175 123 75 61 328 350 357 356 0 358 13 30 38 35 32 50 58 47 46 53 74 120 274 122 122 116 74 56 18 81 157 161 112 112 96 79 55 96 143 132 100 123 123 115 132 160 161 99 107 158 160 141 113 107 116 114 113 120 119 127 131 130
57 32 15 5 0 293 197 131 102 92 91 115 137 124 122 147 17 27 60 92 105 93 59 45 55 86 95 84 83 78 349 1 7 3 5 357 11 35 36 31 32 47 55 53 49 42 39 14 266 125 93 76 77 41 11 88 122 114 107 89 25 16 32 59 136 160 88 90 151 121 130 271 356 68 156 160 169 152 120 120 116 110 117 120 123 129 132 138
13 348 344 345 341 262 165 114 100 95 97 102 128 138 133 194 34 52 81 105 114 86 61 49 50 85 75 68 85 73 12 15 12 4 3 357 17 39 35 32 35 46 56 58 46 32 26 16 66 95 42 115 106 42 94 118 93 103 100 99 344 360 30 37 110 216 74 156 186 123 100 327 3 106 168 147 152 147 119 125 121 116 128 125 132 136 142 151
342 343 346 345 0 138 123 113 107 101 91 88 110 122 121 139 87 100 102 119 132 89 70 56 34 279 80 62 87 51 28 18 10 3 7 6 20 40 36 38 44 52 52 54 44 32 28 34 79 94 87 95 102 217 115 53 65 104 66 91 358 8 349 247 345 343 59 164 192 145 290 278 278 201 172 150 145 137 120 131 138 133 141 141 152 151 160 168
351 353 356 18 96 119 118 116 112 102 82 77 89 105 120 108 84 124 135 138 166 339 180 87 48 85 96 96 184 50 22 9 9 5 8 13 27 37 39 55 64 57 48 51 46 31 36 64 85 83 68 81 111 249 61 19 33 76 35 42 57 56 270 281 332 5 63 169 142 138 244 256 252 220 168 164 155 143 140 153 156 157 162 163 170 169 179 184
8 10 33 91 111 114 113 118 120 108 90 75 77 100 112 65 46 41 244 190 175 176 169 130 61 101 84 60 192 26 5 6 8 4 1 14 37 33 29 57 67 59 54 42 27 19 41 66 75 59 349 10 35 54 33 2 19 43 63 313 355 130 270 303 301 129 87 298 83 104 250 262 249 233 182 169 167 151 148 164 173 173 178 179 186 183 188 197
27 39 88 105 103 102 100 103 112 124 113 79 75 73 33 345 315 13 111 136 77 55 149 97 41 104 93 30 331 7 0 358 359 2 4 21 36 23 15 50 59 43 44 29 28 39 46 54 65 57 18 16 48 77 43 20 2 4 104 215 279 258 289 313 292 137 66 276 8 49 220 242 248 238 196 167 169 160 153 174 186 184 190 189 193 194 192 199
50 68 97 98 91 90 90 86 90 106 110 97 85 64 43 26 356 215 165 127 57 40 88 76 43 86 79 0 340 344 335 333 347 2 16 35 26 18 23 56 39 17 21 26 33 43 34 35 53 50 47 38 58 89 56 359 320 316 28 51 267 273 291 314 305 320 21 11 339 19 155 229 246 224 187 170 168 165 166 183 189 190 200 198 200 202 198 199
72 89 94 85 86 91 94 91 88 98 105 96 61 18 19 37 43 82 181 206 303 13 70 48 37 74 30 357 337 307 312 312 341 4 19 28 9 22 36 46 18 8 18 24 25 27 16 18 47 47 30 20 37 69 109 234 220 229 276 344 299 305 285 286 282 296 13 3 323 357 262 253 251 242 219 186 173 173 182 188 191 196 201 205 207 205 207 208
84 103 102 76 95 108 110 104 81 83 53 314 315 325 326 18 48 54 53 54 50 40 65 345 28 117 259 322 309 311 312 311 353 7 13 7 3 48 51 36 35 34 43 29 6 16 33 31 41 52 16 348 12 112 146 201 185 189 204 184 230 279 272 258 263 273 347 337 297 252 230 234 226 236 230 195 178 181 192 188 192 203 206 211 212 211 214 213
80 86 107 85 135 167 221 274 310 302 296 296 291 316 337 0 24 21 29 43 79 135 118 279 191 125 327 311 324 336 344 70 19 10 10 4 4 61 40 19 33 45 50 76 334 356 72 66 48 124 219 264 243 179 148 219 184 169 151 180 235 256 271 270 269 278 330 347 278 231 216 231 215 221 225 194 176 186 193 192 202 209 210 213 212 218 218 217
70 73 85 99 204 246 295 295 307 310 302 291 281 324 157 157 66 71 355 26 20 67 45 284 207 116 329 290 338 355 38 86 2 7 11 10 21 41 2 16 54 39 355 319 322 351 60 78 121 220 214 228 216 125 29 355 141 139 155 218 290 270 271 287 275 280 354 27 283 275 282 262 232 216 220 185 179 202 199 194 205 207 211 218 213 219 222 225
60 64 70 73 90 341 329 318 337 349 326 302 86 101 134 144 122 146 140 76 334 9 31 353 32 7 316 11 358 4 62 29 350 356 5 10 27 38 347 41 83 123 334 7 23 11 41 79 232 238 210 121 69 62 36 34 109 102 130 145 303 275 289 305 298 310 10 35 290 313 311 269 244 213 221 204 198 220 212 201 205 203 207 217 215 220 224 229
50 55 57 58 61 38 17 7 4 33 58 86 108 108 114 118 125 141 96 94 281 336 18 17 40 351 340 32 12 19 66 48 340 335 354 7 29 61 86 61 77 83 359 16 118 97 57 240 230 230 121 101 59 24 35 43 64 95 133 135 281 278 8 291 296 337 339 229 255 305 309 281 267 213 243 237 220 250 245 220 220 210 208 212 215 219 218 221
43 45 44 44 51 30 21 25 28 74 99 114 115 115 123 123 123 130 81 81 343 289 306 287 137 85 357 16 7 25 80 70 159 321 350 17 64 45 82 98 77 51 359 41 115 119 135 242 165 70 60 103 104 14 41 58 3 303 178 181 266 274 224 226 283 331 331 304 241 316 325 300 315 229 253 261 259 272 261 232 235 232 225 224 227 226 220 219
37 31 26 24 28 11 13 39 69 103 114 121 121 119 122 129 116 104 96 64 353 293 301 285 191 53 0 6 357 19 108 53 192 293 349 29 55 27 73 109 79 103 242 70 88 99 134 278 87 72 45 64 105 45 97 124 0 319 230 210 238 262 253 249 306 343 358 351 311 45 13 297 299 251 249 256 259 258 251 238 240 236 235 235 234 231 226 225
30 18 8 358 0 10 19 111 113 123 129 132 132 118 104 113 88 90 97 60 342 288 325 327 323 7 342 349 345 100 90 6 278 296 12 25 15 83 89 355 57 160 210 121 81 131 225 353 37 108 78 51 65 88 211 137 77 347 214 190 215 253 269 273 291 10 14 288 288 72 117 265 305 279 260 258 243 253 261 254 246 238 236 233 230 229 226 228
26 7 353 338 331 338 314 211 166 151 158 176 152 121 101 116 87 67 72 40 332 269 40 289 300 26 347 341 5 104 111 301 311 32 40 27 354 80 87 332 43 128 191 106 50 220 200 0 29 66 70 53 46 353 219 139 96 267 220 118 270 282 277 262 191 172 228 270 312 17 136 234 294 276 284 317 252 264 267 257 250 238 235 235 235 236 230 227
23 2 345 330 321 322 312 182 172 171 195 192 166 142 106 128 315 29 83 65 304 285 74 294 315 20 337 6 41 84 217 314 48 350 23 46 22 51 80 125 146 135 30 105 217 266 98 345 21 88 67 49 37 256 205 146 120 260 257 329 303 287 263 210 152 172 251 13 324 309 116 191 273 273 348 24 272 273 265 254 249 238 233 234 236 239 236 231
22 7 353 332 316 323 316 171 184 197 222 173 165 171 225 225 344 50 78 132 289 31 67 348 357 320 340 14 20 20 353 14 92 300 359 47 32 45 87 144 133 123 38 93 177 235 65 248 197 124 90 330 251 246 190 161 244 281 299 322 344 22 17 119 125 142 57 30 266 251 133 111 276 274 334 37 258 258 256 253 250 238 232 232 235 240 238 230
23 16 9 349 311 270 225 245 266 170 149 155 161 180 206 62 57 61 53 242 298 350 264 20 318 332 22 32 342 0 26 340 323 344 2 30 17 32 80 152 103 109 22 43 100 232 331 307 198 121 134 201 254 267 191 184 252 320 348 343 16 36 26 55 81 93 65 332 255 229 173 111 301 280 235 201 222 222 234 255 257 243 236 234 236 241 236 226
19 20 18 15 4 273 270 9 81 137 142 147 152 107 47 35 64 93 219 248 107 305 351 29 332 13 39 60 314 353 18 335 330 15 23 8 6 15 32 31 64 72 4 5 11 324 338 344 258 282 236 149 21 327 214 45 344 21 20 354 10 354 4 18 356 41 65 286 253 224 223 120 218 269 242 232 242 219 216 241 241 234 236 237 237 238 231 222
13 16 18 20 24 3 21 115 115 124 132 141 131 71 70 41 19 156 264 320 0 295 1 34 329 33 38 43 21 330 325 344 359 47 55 32 34 28 38 80 166 22 341 301 328 334 319 270 281 316 284 124 69 337 326 355 16 36 38 38 36 357 4 8 332 9 233 263 229 197 296 131 224 255 258 257 259 236 221 224 221 219 227 236 237 235 229 217
5 11 16 17 21 33 78 103 114 118 127 134 97 51 76 82 252 219 272 335 0 308 54 67 358 61 54 22 0 311 306 344 356 35 68 90 72 49 356 0 149 124 297 263 329 347 327 301 315 341 300 95 109 136 311 330 7 20 52 83 72 42 18 323 292 329 280 275 249 187 225 280 271 274 246 244 256 243 226 221 218 218 223 233 237 232 229 221
359 9 14 16 20 29 69 86 109 123 125 109 75 55 80 150 238 203 261 267 244 352 42 76 16 32 48 47 288 294 36 325 333 26 24 41 63 39 316 327 45 109 105 39 351 37 335 303 283 173 252 35 109 172 171 153 82 315 166 123 108 133 121 259 248 252 280 294 290 235 166 207 260 272 222 227 265 268 241 233 237 247 242 245 255 246 234 232
350 359 7 14 16 15 49 78 115 130 124 81 65 71 130 227 246 182 230 247 230 0 357 47 63 52 2 324 300 313 149 267 355 49 28 39 125 171 233 292 327 91 113 75 281 174 231 271 261 273 286 106 122 222 137 111 103 246 146 93 65 177 152 170 214 206 240 326 295 260 227 208 231 268 257 282 301 283 261 255 258 263 259 253 259 249 234 236
345 352 359 2 5 10 45 79 120 138 103 79 68 85 194 226 236 174 204 212 139 148 105 7 60 89 308 303 328 350 8 277 8 50 11 45 169 184 184 229 227 111 138 150 233 43 0 285 286 340 348 112 165 221 115 79 172 108 68 138 224 163 123 114 281 312 65 22 280 280 274 281 317 295 304 2 314 284 271 259 252 254 257 251 247 245 236 237
350 349 341 349 359 7 47 75 133 153 74 83 97 202 214 217 177 173 192 97 130 123 109 45 286 155 234 270 295 308 333 312 339 55 228 248 195 181 171 228 191 165 178 160 202 196 146 287 292 5 252 261 180 157 15 354 135 110 161 212 184 83 83 98 311 345 38 258 273 308 282 292 345 305 313 344 292 275 265 253 253 257 256 248 244 243 239 236
351 343 338 2 2 10 74 89 141 140 72 79 118 238 212 194 175 161 165 126 114 89 100 184 226 180 194 201 260 266 295 296 311 51 186 233 246 164 142 190 187 182 212 143 107 188 127 290 299 297 210 287 11 73 342 327 63 111 187 185 90 79 305 38 37 333 359 290 285 301 289 280 219 234 284 288 259 263 267 259 257 254 244 240 244 243 240 236
352 349 358 3 5 30 102 134 141 75 69 90 226 243 194 209 264 220 184 137 107 108 134 211 222 83 180 178 209 237 248 234 213 90 180 208 267 161 138 176 183 174 251 134 144 235 104 135 286 296 249 302 6 75 239 285 12 51 61 24 35 147 178 184 157 166 190 278 289 313 321 283 229 209 233 260 258 256 263 264 253 247 238 233 237 237 233 226
14 56 334 346 6 62 107 128 77 57 70 161 206 204 259 245 262 277 239 199 147 153 191 206 182 166 205 202 213 206 188 202 182 161 219 210 238 206 160 149 163 166 311 71 118 213 71 142 250 300 320 309 282 214 197 186 170 119 90 270 311 97 142 233 252 142 145 186 246 297 310 278 258 208 214 251 263 252 247 250 248 244 238 233 230 229 228 223
61 75 300 336 1 185 55 59 47 58 103 150 187 185 304 158 180 311 304 278 196 216 191 170 173 184 188 193 232 201 159 193 189 180 235 218 200 238 203 129 165 171 84 63 90 159 140 162 215 289 309 247 239 240 190 177 169 154 177 200 185 154 118 61 298 286 122 163 192 182 288 278 268 192 212 243 251 248 238 232 242 244 234 236 234 227 224 220
73 92 296 346 354 239 46 58 11 51 113 148 200 188 225 100 120 318 320 12 53 230 59 131 175 182 169 170 205 180 151 187 204 189 224 211 192 213 196 101 149 158 113 129 229 228 158 112 138 268 261 234 253 285 119 171 165 143 181 186 147 135 127 138 233 255 204 192 186 123 250 272 259 175 200 231 233 248 239 214 232 247 238 237 237 230 224 220
101 188 277 18 18 75 64 55 325 13 61 248 288 287 305 101 121 179 276 277 194 179 8 308 208 202 200 188 150 168 180 196 189 188 218 222 207 205 118 71 68 118 100 133 225 238 118 93 78 278 288 303 306 325 15 54 105 154 231 164 141 156 143 154 181 184 201 211 175 116 247 268 269 198 209 241 251 266 256 222 234 249 250 242 234 229 221 219
162 209 217 23 12 54 91 166 231 10 286 302 26 325 300 139 156 161 207 244 204 158 153 218 220 222 206 118 102 174 201 203 201 200 193 199 219 7 37 34 28 138 139 182 182 173 251 170 102 328 326 336 344 347 343 335 196 218 241 178 150 120 104 120 141 101 263 218 168 157 246 263 270 152 187 273 285 275 259 240 237 246 253 248 233 225 218 216
96 271 292 358 25 65 125 185 148 150 208 84 76 234 230 252 208 179 187 219 195 170 173 257 228 127 97 77 66 129 189 319 262 301 51 210 251 341 7 4 63 157 232 262 103 107 225 193 142 132 289 291 295 298 287 272 237 226 213 184 175 140 135 156 130 107 246 227 160 169 240 268 281 298 307 289 280 276 273 262 249 248 254 252 237 221 214 213
85 36 307 335 17 56 67 122 111 123 162 148 142 231 169 183 278 236 167 194 193 164 168 310 89 82 57 87 103 264 262 339 20 76 180 234 258 292 307 5 86 182 237 337 51 77 97 228 208 189 207 231 248 255 232 112 284 264 241 204 197 184 159 132 110 175 204 175 190 224 238 273 287 288 296 297 287 283 286 287 280 270 266 258 239 222 216 215
93 170 176 332 347 31 31 18 75 101 173 174 161 202 180 195 297 328 184 216 203 135 130 16 142 156 180 172 169 237 245 353 41 171 208 223 249 282 270 161 128 241 215 97 60 94 89 289 243 206 229 246 255 272 286 309 267 261 254 222 201 192 164 156 196 212 156 118 259 249 219 247 277 283 293 298 296 295 294 293 291 286 277 264 237 219 222 222
45 185 147 101 274 217 45 0 105 100 111 180 131 166 174 180 229 207 201 300 5 206 177 272 238 209 194 179 161 182 229 297 270 230 216 216 244 336 339 214 225 315 79 47 348 109 125 258 242 194 250 266 264 268 269 264 258 259 255 238 217 195 179 196 220 212 157 192 255 264 240 244 270 284 291 291 293 294 292 291 291 288 276 254 226 222 226 225
61 118 6 19 319 192 168 7 112 108 106 107 86 186 173 186 226 228 183 88 350 283 196 221 260 234 203 189 147 154 204 211 276 257 206 177 196 138 302 238 228 12 71 97 321 140 148 247 246 174 282 285 273 261 256 251 259 268 259 240 223 211 199 211 230 221 198 232 254 267 275 274 275 279 282 285 287 287 287 289 288 282 273 248 229 232 234 230
101 165 225 39 55 123 51 37 90 109 90 21 316 237 179 181 217 240 171 150 193 262 186 213 251 232 194 187 158 186 215 186 195 242 184 155 221 202 206 218 160 81 53 144 270 262 191 262 251 103 317 288 285 308 284 243 247 271 274 257 228 219 216 223 239 232 218 245 256 266 278 280 275 271 270 276 281 285 287 285 280 275 268 252 242 241 238 237
139 142 144 110 83 327 4 33 92 115 282 290 210 228 212 202 211 202 184 178 170 180 184 199 221 184 126 179 197 233 234 183 182 219 186 175 220 208 214 207 145 136 174 186 175 161 188 272 358 55 344 279 292 2 331 301 287 279 280 273 237 204 210 224 229 205 197 230 258 278 282 271 270 274 270 267 272 280 283 282 282 278 267 249 245 251 246 239
140 76 85 107 95 293 123 76 73 113 231 234 197 199 220 243 229 188 184 311 104 159 193 187 171 124 109 201 224 240 231 187 197 221 186 171 158 130 173 163 134 139 164 171 168 160 153 158 23 53 311 272 291 342 327 323 322 289 269 250 194 184 213 239 247 218 199 204 251 263 253 263 280 294 292 285 284 282 281 284 287 283 278 261 249 253 254 248
Height
838 837 837 837 837 837 836 836 836 836 836 836 835 835 835 835 834 834 835 834 834 834 834 833 832 833 832 832 832 832 831 831 830 829 830 834 834 833 832 831 829 828 828 827 826 825 825 824 824 823 823 823 824 825 823 824 825 827 841 852 857 861 859 856 856 856 854 855 854 854 854 853 860 863 862 866 869 875 877 877 877 876 876 876 877 880 882 884
839 838 838 838 837 837 837 837 837 837 836 836 836 835 835 835 835 835 835 834 834 834 834 833 833 833 833 832 832 832 831 831 831 831 833 834 833 833 832 831 829 829 828 827 826 826 826 826 825 825 825 825 826 826 825 827 827 834 848 854 857 859 856 853 854 854 854 855 854 856 858 854 858 861 861 868 877 878 878 882 882 880 881 880 881 882 884 885
839 838 838 838 838 837 837 837 837 837 837 837 837 836 835 835 835 835 835 835 835 834 834 833 833 833 833 833 832 832 832 831 832 833 834 834 833 833 832 830 829 828 827 827 826 826 826 826 826 826 826 827 829 827 827 830 832 839 847 853 857 854 853 854 854 853 853 854 854 857 859 858 860 861 862 869 876 876 877 881 882 882 882 882 884 884 884 885
839 839 838 838 838 837 837 837 837 837 837 837 837 836 835 835 835 835 835 835 835 835 834 834 833 833 833 832 832 832 831 833 836 836 835 834 833 832 831 830 829 828 827 826 825 825 825 825 825 826 827 829 831 830 831 833 834 840 844 849 854 853 853 854 853 852 852 853 854 858 859 861 863 861 865 867 867 873 876 875 876 877 879 882 884 884 884 885
839 839 839 838 838 838 837 837 837 837 837 837 837 836 835 835 835 835 835 835 835 835 834 834 834 833 833 831 831 830 832 837 839 836 835 834 832 832 831 830 829 828 827 826 825 824 824 825 825 827 829 831 832 832 835 836 835 842 848 848 850 852 852 852 853 853 853 853 854 858 858 861 864 864 868 866 864 871 872 871 873 874 877 881 882 884 885 885
839 839 839 838 838 838 837 837 837 837 837 837 836 836 836 835 835 834 834 834 835 835 834 834 834 833 832 831 831 829 833 841 840 836 835 834 833 832 831 830 829 828 827 826 825 824 824 825 826 829 832 834 837 836 838 838 836 843 851 850 850 850 849 851 854 854 854 853 854 858 859 863 865 869 873 869 869 873 872 872 874 876 879 880 881 883 884 885
839 839 839 838 838 838 837 837 837 837 837 837 836 836 836 835 834 834 834 834 835 835 834 834 833 833 832 831 831 831 835 840 839 836 836 834 833 832 831 831 830 828 827 826 825 825 826 826 827 831 834 837 839 839 840 839 838 843 850 851 851 849 848 851 854 855 855 854 858 861 861 866 867 869 874 875 876 877 875 876 876 878 881 880 882 883 884 885
839 839 839 838 838 838 837 837 837 837 837 836 836 836 836 835 835 835 834 835 835 835 834 833 833 832 831 831 832 835 838 840 838 837 836 834 834 832 831 831 830 829 827 826 826 826 827 828 831 833 835 838 838 840 841 840 841 846 850 851 851 849 849 853 854 856 858 859 860 862 865 869 868 869 876 879 879 879 878 878 879 880 881 882 882 883 884 884
840 839 839 839 838 838 838 837 837 837 837 836 836 836 837 836 836 836 835 835 835 835 834 833 832 831 831 831 832 837 841 841 839 837 836 834 834 832 831 831 830 829 828 828 826 825 828 831 833 831 833 838 838 840 841 842 845 848 849 851 851 851 852 854 854 855 859 861 860 863 870 872 870 871 878 882 881 880 880 880 881 881 882 884 884 884 884 884
840 840 839 839 838 838 838 837 837 837 837 837 837 837 837 837 836 836 836 836 835 835 834 833 832 831 831 831 833 841 843 840 839 838 836 834 834 833 832 831 831 830 829 828 827 827 830 831 832 830 832 836 839 842 843 843 846 849 849 851 851 852 854 854 855 856 858 861 859 861 870 872 870 871 876 882 882 881 880 882 883 882 883 885 884 885 884 884
840 840 840 839 838 838 838 837 837 837 837 837 837 837 837 837 837 837 836 836 836 835 835 834 833 832 831 832 837 844 842 840 839 837 836 835 834 833 832 832 831 830 829 829 829 830 831 831 831 831 833 837 840 844 846 845 847 849 849 851 854 854 854 854 855 856 857 861 861 861 866 869 869 869 873 879 881 881 880 882 884 883 884 885 885 886 885 885
841 840 840 839 838 838 838 837 836 837 838 837 837 837 837 838 837 837 836 836 836 836 835 834 834 833 832 834 840 843 841 840 839 837 836 835 834 833 833 832 831 831 831 831 831 831 831 831 829 831 836 838 842 846 846 847 849 849 850 853 857 856 854 854 855 856 856 860 862 861 863 868 871 872 874 878 880 881 881 883 885 884 885 885 886 885 885 885
841 841 840 839 838 838 837 837 837 838 838 837 837 837 838 838 837 837 836 836 836 836 836 835 834 833 834 838 842 841 840 840 839 838 836 835 834 834 833 833 832 832 832 832 832 833 832 831 830 833 838 839 844 847 845 848 849 851 854 857 859 860 858 856 855 856 856 858 860 861 861 866 874 874 875 878 880 881 882 884 885 885 886 885 885 885 885 884
841 840 840 839 838 838 838 838 838 838 838 837 837 838 838 838 837 837 836 837 836 836 836 835 835 833 835 841 842 840 841 840 839 837 836 835 834 834 833 833 833 833 833 833 834 834 833 832 831 834 840 843 846 846 847 852 854 857 860 862 868 866 858 855 857 857 856 857 859 861 859 863 872 874 875 878 879 880 882 885 885 885 885 885 885 884 884 883
841 840 840 839 839 838 838 838 838 838 838 838 838 839 839 838 837 837 837 837 837 836 836 835 835 834 838 842 841 841 841 839 839 838 836 836 834 834 834 833 834 834 834 834 834 835 835 833 834 840 845 847 848 848 853 856 859 866 862 861 874 871 859 858 859 859 858 857 859 859 859 865 871 872 874 878 879 879 880 884 885 885 885 884 884 884 883 882
841 841 840 839 839 839 839 838 838 838 838 839 839 839 839 838 838 837 837 837 836 836 835 835 835 834 839 843 841 840 841 840 840 838 837 836 835 835 835 834 834 834 835 836 835 835 836 837 842 849 849 850 853 853 856 857 860 871 866 859 868 870 865 862 858 860 862 859 858 858 858 864 869 869 873 876 878 879 880 883 884 884 884 883 883 883 882 882
842 841 841 840 840 840 839 839 839 839 839 839 839 840 839 838 837 837 837 837 837 836 835 836 835 834 840 842 841 842 842 842 840 839 838 836 836 836 835 835 835 835 835 835 835 836 838 842 849 853 855 860 863 858 855 856 857 867 870 865 867 870 868 864 858 860 863 859 859 861 858 860 865 868 872 875 876 878 879 881 883 883 883 882 882 882 881 881
842 842 842 841 841 841 840 840 840 839 840 840 840 840 840 839 838 837 838 837 837 836 835 836 835 839 844 844 844 845 843 842 841 839 837 837 836 836 835 836 836 836 837 838 839 841 843 849 854 856 860 865 865 859 855 857 860 865 868 866 867 871 869 867 863 860 861 858 858 861 858 861 870 870 871 874 876 876 876 879 880 881 881 881 881 881 880 879
843 842 842 842 842 841 841 840 840 840 840 840 840 840 839 840 839 838 838 837 839 841 842 843 842 846 849 846 845 844 842 843 841 840 838 837 836 836 836 837 837 838 840 844 845 848 851 853 857 859 863 868 869 867 863 864 867 868 870 871 870 870 869 868 865 861 864 859 855 858 857 860 869 869 869 872 874 875 875 878 880 880 880 880 879 879 878 878
843 843 842 842 842 842 841 841 841 840 840 840 839 840 840 841 842 843 843 841 845 848 848 848 847 848 847 846 845 843 842 842 842 841 839 837 836 836 838 838 840 841 846 849 849 855 857 857 863 866 868 871 871 872 871 870 872 872 873 873 873 873 870 867 865 863 864 860 853 857 858 858 864 868 869 871 874 875 875 877 878 878 878 878 878 877 876 875
843 843 843 843 842 842 841 841 841 840 839 839 839 840 842 843 844 847 847 847 849 849 848 848 848 848 847 847 845 843 843 842 842 841 838 838 837 837 840 841 842 847 853 855 854 857 856 858 867 869 869 871 871 873 872 870 871 872 872 871 871 872 868 863 866 865 864 863 856 856 859 855 859 867 868 870 872 872 872 874 875 876 876 875 875 874 873 872
844 843 843 843 842 842 842 841 841 840 840 839 839 840 842 842 843 844 845 849 850 848 848 848 848 848 847 846 845 845 845 843 842 841 839 839 837 839 844 846 847 852 858 857 855 858 860 863 867 867 870 871 871 873 873 872 871 871 873 873 870 870 868 861 863 867 866 865 858 857 860 853 856 868 868 869 870 868 870 871 871 871 873 873 872 872 871 870
844 843 843 842 842 842 842 841 841 840 840 839 840 841 842 842 843 843 843 848 850 849 849 849 848 849 847 846 846 845 846 848 848 845 842 840 841 845 847 850 853 855 858 856 855 857 860 864 866 869 870 868 869 871 871 870 869 872 872 869 868 873 874 863 861 866 867 869 864 860 860 853 860 869 867 868 869 868 869 869 870 870 868 869 868 868 867 866
844 844 843 843 843 842 842 841 841 840 840 840 841 841 843 843 843 844 844 849 852 849 849 849 849 849 847 847 846 846 848 852 853 849 846 844 846 849 850 853 856 857 863 862 859 858 860 865 868 870 868 866 869 871 872 869 866 871 872 867 866 870 873 868 867 869 866 869 868 863 854 846 860 871 864 867 870 868 869 867 867 868 866 867 865 864 864 862
844 843 843 843 842 842 842 841 841 841 841 841 842 842 843 843 844 844 845 852 854 850 849 849 848 848 848 848 847 848 850 851 852 850 848 848 849 850 853 857 856 860 869 867 861 861 864 868 869 867 867 870 870 870 875 873 866 867 867 865 865 865 868 871 875 875 863 859 862 864 854 842 857 867 860 865 869 866 868 867 865 865 865 865 863 861 860 859
843 843 843 842 842 842 842 841 842 842 841 842 843 843 843 843 844 843 845 855 857 851 850 849 849 849 848 849 849 849 851 852 852 851 850 850 849 850 853 858 860 861 867 868 864 864 866 870 870 867 867 870 870 870 876 877 870 865 863 865 867 868 870 872 876 874 860 855 861 867 860 849 848 848 853 868 871 867 867 865 863 863 862 860 859 858 856 856
843 843 843 842 842 842 841 841 841 841 842 843 843 843 843 843 844 843 849 861 859 852 852 851 850 850 849 851 850 850 853 853 851 851 851 850 850 850 852 858 861 861 867 867 863 864 867 868 869 868 866 868 868 868 873 877 872 861 861 869 870 870 871 872 876 873 866 862 864 868 865 859 848 842 861 874 866 865 867 862 860 859 859 857 855 855 853 853
844 843 842 842 842 841 841 841 841 842 842 842 843 843 843 844 844 843 853 865 861 853 853 852 850 850 850 851 852 853 855 855 854 852 852 850 850 850 852 859 862 864 870 866 857 864 870 866 866 866 865 867 866 867 872 876 870 860 864 871 870 870 872 875 875 874 878 869 857 863 865 861 849 843 868 879 862 857 855 850 852 852 853 853 851 850 849 849
844 843 842 842 841 841 842 841 841 842 842 842 843 843 843 844 843 847 859 865 858 854 854 852 850 852 854 853 854 858 857 856 856 854 852 852 851 851 855 862 865 866 871 870 862 865 871 870 870 868 866 867 866 869 873 872 867 863 866 868 869 874 874 876 873 869 876 864 848 858 863 860 849 834 852 870 857 846 838 837 845 846 847 849 847 846 845 847
844 843 843 842 841 842 841 841 842 841 842 842 842 843 843 843 847 858 867 863 856 856 855 852 854 857 859 855 856 861 859 858 859 856 854 855 854 855 860 863 864 864 868 871 868 870 874 875 875 870 867 870 869 871 874 873 870 866 866 864 864 871 870 870 872 869 865 850 845 860 862 862 856 833 834 844 835 828 826 830 838 840 843 844 843 843 843 844
844 843 843 841 841 841 841 842 841 841 842 842 842 843 843 847 856 865 868 860 857 858 856 857 862 862 862 861 859 862 862 860 861 858 856 859 859 860 863 862 863 864 863 865 866 871 873 870 872 872 871 873 871 870 874 876 874 868 867 866 859 860 862 860 861 862 853 840 849 867 864 865 861 834 824 828 827 830 829 824 827 830 834 837 839 840 840 842
844 843 842 842 842 841 841 841 841 842 843 842 843 843 846 857 862 862 862 857 857 860 859 862 866 865 866 866 865 868 866 861 863 863 864 868 869 871 874 871 870 865 859 862 866 866 868 870 873 872 871 874 871 867 869 872 872 866 866 868 858 856 860 854 854 862 855 843 856 870 862 859 854 830 819 821 821 828 831 826 825 826 827 830 835 837 837 840
844 844 843 842 842 842 842 842 842 843 842 842 844 844 851 862 862 862 862 857 858 864 865 866 868 869 868 864 866 872 869 865 865 866 870 873 872 877 884 886 885 873 863 868 869 861 860 870 875 869 868 873 871 866 862 864 869 866 867 868 861 864 866 857 863 874 864 850 860 874 866 855 842 823 817 816 814 821 828 829 828 826 827 827 831 835 836 837
844 844 843 843 843 842 842 842 842 843 842 843 844 848 858 862 861 865 863 859 865 870 869 871 869 868 868 866 870 874 868 866 869 867 867 869 867 870 877 882 887 883 875 873 872 867 858 857 865 867 867 871 871 869 866 867 870 871 877 875 865 868 867 860 863 866 864 865 868 871 863 845 828 815 813 817 821 828 831 832 833 830 831 832 832 835 835 835
844 844 844 844 843 843 843 843 843 842 842 843 847 855 861 858 857 860 859 862 868 868 869 874 870 865 867 869 873 876 869 866 870 869 867 868 867 868 873 877 883 886 878 868 871 877 864 854 865 873 872 872 870 874 876 872 869 876 883 875 865 870 871 870 874 875 883 887 875 864 851 837 825 814 819 829 828 829 831 831 833 830 830 834 833 833 832 831
844 844 844 844 844 843 843 842 842 843 843 845 851 858 859 856 857 860 862 867 868 865 866 869 867 864 865 867 870 874 873 869 869 868 868 872 872 874 877 879 885 886 879 870 872 876 864 857 871 876 872 875 873 874 878 871 867 874 877 869 874 884 877 873 883 893 902 891 870 858 842 834 831 813 817 833 825 821 828 828 828 827 829 833 831 829 830 829
844 844 844 844 844 843 843 842 843 843 843 846 852 858 860 861 864 867 870 872 871 870 866 861 863 864 861 863 864 868 871 870 869 866 866 872 871 873 878 880 885 886 883 880 876 877 870 860 870 877 869 874 880 877 877 877 874 871 868 870 881 887 882 883 884 886 894 883 865 858 843 838 841 820 811 822 817 812 817 821 825 827 828 831 828 827 827 826
844 844 844 844 843 843 843 842 843 843 844 850 854 859 864 866 870 875 875 874 872 870 865 859 862 866 863 860 861 867 870 865 866 866 865 868 868 871 876 878 883 886 887 887 877 879 880 862 864 880 874 872 881 877 871 877 879 873 870 875 878 873 873 883 881 872 880 881 866 862 859 850 842 823 806 806 806 804 806 814 820 821 822 825 824 823 824 823
845 845 845 845 844 844 843 843 844 844 846 852 853 857 865 869 874 879 878 876 872 867 863 861 864 867 866 864 861 867 871 865 864 866 862 864 866 871 877 877 881 885 887 888 879 878 883 867 860 876 880 875 876 873 867 870 878 879 876 878 878 875 875 880 883 880 879 880 872 865 857 836 820 813 803 797 800 802 803 808 810 810 814 818 818 819 819 819
845 846 846 845 844 844 844 843 844 844 848 857 860 861 868 871 874 880 879 877 873 867 864 864 866 865 865 869 868 867 872 870 867 866 863 866 867 869 878 880 879 883 886 887 883 880 884 876 862 868 880 876 866 866 863 860 867 874 873 875 876 880 886 884 887 891 883 878 881 877 857 824 805 805 802 796 799 801 802 803 803 806 810 812 813 814 814 815
846 847 846 845 844 845 845 844 850 856 855 861 867 867 871 871 872 877 880 879 876 872 871 869 867 864 862 866 868 867 870 870 869 867 864 868 866 864 878 886 882 883 882 880 881 880 880 878 870 866 868 861 856 867 872 865 865 866 863 867 868 871 880 877 879 893 894 885 882 882 867 829 799 797 798 797 797 797 801 803 801 804 807 807 809 810 811 813
847 849 847 845 844 844 844 848 863 869 861 861 868 871 872 873 873 875 877 879 876 874 875 872 869 868 865 863 866 869 868 866 868 867 863 866 867 867 881 892 889 887 882 878 882 885 883 883 879 868 861 860 864 874 879 874 874 872 868 872 874 873 872 867 868 880 890 892 891 897 885 833 792 793 797 794 796 797 800 804 801 803 804 805 806 807 809 810
847 848 846 845 845 844 845 852 862 866 864 869 875 875 874 874 873 875 876 875 874 873 872 870 869 868 865 866 869 868 867 864 864 866 865 866 872 880 890 893 891 888 883 880 882 885 883 882 878 867 859 865 873 877 879 878 877 872 871 876 877 873 870 869 873 878 880 882 883 894 883 826 787 795 798 795 801 803 804 805 802 801 803 804 805 806 807 808
848 848 846 845 844 843 846 851 853 857 867 875 874 872 874 875 873 873 872 871 872 872 868 867 869 868 868 871 870 867 868 864 861 866 870 868 874 889 895 893 891 888 883 881 882 882 878 874 874 866 854 854 858 862 865 870 873 869 868 875 875 876 881 882 887 890 881 870 869 876 862 816 787 796 799 798 803 801 801 805 803 802 801 800 802 803 804 805
848 847 847 846 844 845 849 854 853 854 867 873 869 869 871 871 873 874 871 871 873 873 868 867 871 871 871 874 871 870 873 867 862 869 873 871 879 891 894 893 893 889 887 890 890 884 878 875 873 864 856 852 846 844 847 853 864 867 867 873 874 875 878 873 879 887 876 870 875 866 837 800 783 790 795 796 800 797 796 799 800 800 798 796 799 800 801 803
847 847 848 847 847 849 854 862 859 854 862 866 863 867 868 865 870 876 874 871 873 875 872 870 872 871 870 871 868 867 872 872 871 871 870 868 876 889 894 893 893 892 891 894 893 888 884 883 877 866 858 852 842 841 851 858 860 858 859 866 871 874 876 872 876 877 869 874 874 849 827 809 793 791 795 794 796 795 793 792 793 794 793 793 795 796 797 799
847 848 850 849 849 851 854 860 860 856 859 859 855 861 865 863 868 873 873 872 873 875 872 871 872 868 865 867 865 864 870 874 874 872 870 872 878 889 895 893 893 893 892 893 892 889 883 877 876 873 863 856 853 853 860 865 861 854 855 859 862 871 878 874 868 861 860 867 851 824 827 829 807 794 796 793 792 791 790 789 789 789 789 790 791 793 794 795
849 851 856 854 851 851 851 855 860 859 860 860 859 861 863 863 864 863 866 873 876 874 869 867 869 866 863 864 861 862 868 870 868 869 872 875 880 884 887 890 894 894 892 893 891 889 883 873 875 878 866 860 866 866 862 864 863 857 856 858 859 867 874 866 856 854 856 852 829 810 821 826 808 797 796 792 791 790 787 787 787 787 787 788 788 790 790 790
852 853 858 859 854 855 858 861 863 859 858 861 861 861 861 860 858 859 866 870 870 872 871 862 859 863 865 865 862 860 863 860 858 864 868 872 877 878 873 876 888 896 894 890 890 891 883 873 876 882 872 860 863 864 862 866 865 857 854 855 855 859 865 860 852 851 853 845 829 820 823 821 809 801 798 793 791 791 788 787 787 785 783 784 785 785 785 785
850 849 854 857 856 860 864 865 863 858 859 862 858 857 862 859 855 859 865 863 858 865 871 862 855 862 866 867 863 858 858 856 854 859 865 866 870 873 867 863 876 893 895 888 889 892 883 873 878 884 874 858 854 857 859 862 863 856 846 845 849 853 858 861 858 856 857 850 838 834 837 830 810 799 799 796 791 790 787 784 783 780 778 780 780 780 780 779
848 848 850 851 853 860 862 863 863 858 857 859 855 855 859 856 856 858 859 861 859 859 864 860 856 863 869 869 865 858 858 861 858 860 864 862 862 865 865 863 870 881 889 890 889 888 884 879 880 881 870 854 853 857 855 854 856 848 831 825 835 847 850 850 852 853 849 841 837 841 840 822 799 791 794 792 788 788 783 777 776 773 772 775 775 773 773 772
849 849 849 849 851 860 861 860 863 859 854 855 856 856 856 855 860 860 854 859 866 864 864 863 860 862 864 863 862 860 863 866 865 866 868 866 866 867 866 869 870 871 880 889 890 890 889 880 875 879 869 851 852 861 858 853 843 824 810 807 816 831 837 834 835 838 837 832 829 826 815 797 788 789 789 785 782 781 775 771 770 768 767 769 769 767 765 765